Location: Unspecified
(0.0000°N, 0.0000°E)
Time: 21:37:09
(UTC+00:00)

Altair - All Passes

Search period start: 02 June 2015 00:00
Search period end: 12 June 2015 00:00
Orbit: 1501 x 1683 km, 47.2° (Epoch: 02 June)

Date Brightness Start Highest point End Pass type
(mag) Time Alt. Az. Time Alt. Az. Time Alt. Az.
02 Jun - 01:26:41 10° WNW 01:35:32 43° SW 01:44:03 10° SSE night (unlit)
02 Jun - 10:09:51 10° SSE 10:14:40 15° SE 10:20:17 10° E daylight
02 Jun - 12:10:12 10° SW 12:19:59 82° SE 12:30:04 10° NE daylight
02 Jun - 14:17:59 10° W 14:25:13 21° NW 14:32:03 10° N daylight
02 Jun - 22:57:16 10° NNW 23:05:40 35° NE 23:14:01 10° ESE visible
03 Jun - 01:01:19 10° WNW 01:10:23 49° SW 01:19:08 10° SSE night (unlit)
03 Jun - 09:45:41 10° SSE 09:49:21 13° SE 09:53:54 10° ESE daylight
03 Jun - 11:45:07 10° SSW 11:54:48 74° SE 12:04:50 10° NE daylight
03 Jun - 13:52:13 10° W 13:59:56 24° NW 14:07:20 10° N daylight
03 Jun - 22:32:24 10° N 22:40:28 31° NE 22:48:33 10° ESE visible
04 Jun - 00:35:58 10° NW 00:45:14 55° SW 00:54:10 10° SSE night (unlit)
04 Jun - 09:22:07 10° SSE 09:24:02 11° SE 09:26:54 10° ESE daylight
04 Jun - 11:20:04 10° SSW 11:29:38 66° SE 11:39:34 10° NE daylight
04 Jun - 13:26:34 10° WSW 13:34:40 27° NW 13:42:32 10° N daylight
04 Jun - 22:07:33 10° N 22:15:14 28° NE 22:23:01 10° ESE visible
05 Jun - 00:10:40 10° NW 00:20:06 62° SW 00:29:11 10° SSE visible
05 Jun - 10:55:04 10° SSW 11:04:28 59° SE 11:14:16 10° NE daylight
05 Jun - 13:01:00 10° WSW 13:09:24 30° NW 13:17:42 10° N daylight
05 Jun - 21:42:46 10° N 21:49:59 24° NE 21:57:25 10° E visible
05 Jun - 23:45:24 10° NW 23:54:57 69° SW 00:04:10 10° SSE visible
06 Jun - 01:57:25 10° WSW 02:00:22 11° SW 02:02:28 10° SSW night (unlit)
06 Jun - 10:30:05 10° SSW 10:39:18 53° SE 10:48:55 10° NE daylight
06 Jun - 12:35:29 10° WSW 12:44:10 34° NW 12:52:49 10° NNE daylight
06 Jun - 21:18:02 10° N 21:24:44 22° NE 21:31:45 10° E visible
06 Jun - 23:20:10 10° NW 23:29:49 77° SW 23:39:07 10° SE visible
07 Jun - 01:30:36 10° WSW 01:35:04 13° SW 01:38:45 10° SSW night (unlit)
07 Jun - 10:05:08 10° SSW 10:14:07 47° SE 10:23:32 10° ENE daylight
07 Jun - 12:10:03 10° WSW 12:18:56 38° NW 12:27:54 10° NNE daylight
07 Jun - 20:53:22 10° N 20:59:27 19° NE 21:05:57 10° E visible
07 Jun - 22:54:57 10° NW 23:04:41 86° SW 23:14:03 10° SE visible
08 Jun - 01:04:20 10° W 01:09:48 16° SW 01:14:34 10° SSW night (unlit)
08 Jun - 09:40:12 10° SSW 09:48:56 42° SE 09:58:07 10° ENE daylight
08 Jun - 11:44:39 10° WSW 11:53:43 43° NW 12:02:56 10° NNE daylight
08 Jun - 20:28:49 10° N 20:34:09 17° NE 20:40:02 10° E visible
08 Jun - 22:29:47 10° NW 22:39:32 86° NE 22:48:56 10° SE visible
09 Jun - 00:38:17 10° W 00:44:33 18° SW 00:50:09 10° S night (unlit)
09 Jun - 09:15:20 10° SSW 09:23:45 37° SE 09:32:39 10° ENE daylight
09 Jun - 11:19:18 10° WSW 11:28:31 48° NW 11:37:57 10° NNE daylight
09 Jun - 20:04:25 10° NNE 20:08:50 14° NE 20:13:55 10° ENE visible
09 Jun - 22:04:38 10° NW 22:14:23 78° NE 22:23:49 10° SE visible
10 Jun - 00:12:23 10° W 00:19:18 21° SW 00:25:36 10° S night (unlit)
10 Jun - 08:50:30 10° S 08:58:33 33° SE 09:07:07 10° ENE daylight
10 Jun - 10:53:59 10° SW 11:03:19 54° NW 11:12:55 10° NNE daylight
10 Jun - 19:40:18 10° NNE 19:43:30 12° NE 19:47:29 10° ENE visible
10 Jun - 21:39:31 10° NNW 21:49:14 70° NE 21:58:38 10° SE visible
10 Jun - 23:46:37 10° W 23:54:04 24° SW 00:00:58 10° S night (unlit)
11 Jun - 08:25:42 10° S 08:33:21 29° SE 08:41:32 10° ENE daylight
11 Jun - 10:28:43 10° SW 10:38:08 60° NW 10:47:52 10° NNE daylight
11 Jun - 19:17:02 10° NNE 19:18:08 10° NE 19:20:11 10° NE visible
11 Jun - 21:14:25 10° NNW 21:24:05 62° NE 21:33:26 10° SE visible
11 Jun - 23:20:56 10° WNW 23:28:51 27° SW 23:36:15 10° S visible
